Location: Dehesa de la Cepeda
(40.6574°N, 4.3013°W)
Time: 08:18:03
(UTC+00:00)

Courier 1B Rocket - Pass Details

Date: 31 July 2021
Orbit: 920 x 1202 km, 28.3° (Epoch: 26 September)

Event Time Altitude Azimuth Distance (km) Brightness Sun altitude
Exits shadow 02:23:01 18° 141° (SE) 2,163 6.6 -24.9°
Drops below altitude 10° 02:25:27 10° 120° (ESE) 2,646 7.3 -24.7°
Sets 02:28:40 0° 105° (ESE) 3,567 8.2 -24.3°
